[[{"header":{"parameterUnit":"m.s-1","parameterCategory":1,"la1":30.2991,"la2":30.254,"lo1":-89.0895,"lo2":-89.0444,"dy":0.0017,"dx":0.0017,"nx":28,"ny":28,"refTime":"2024-10-12T21:00:00:Z","depth":0,"parameterNumber":2,"parameterNumberName":"U-component_of_WINDS"},"data":[0,0,0,0,0,0,0,0,0,0,0,0,0,0,0,0,0,0,0,0,0,0,0,0,0,0,0,0,0,0,0,0,0,0,0,0,0,0,0,0,0,0,0,0,0,0,0,0,0,0,0,0,0,0,0,0,0,0,1.9387,1.9388,0,1.9479,1.948,1.9481,1.9498,1.9497,1.9496,1.9496,1.959,1.9593,1.9597,0,0,0,0,0,0,0,0,0,0,0,0,0,1.9228,1.9231,1.9387,1.9388,1.9389,1.9478,1.948,1.9481,1.9498,1.9497,1.9496,1.9495,1.9589,1.9593,1.9597,0,0,0,0,0,0,0,0,0,0,0,0,0,1.9306,1.9232,1.9387,1.9408,1.9411,1.9478,1.948,1.9481,1.9498,1.9497,1.9496,1.9495,1.9588,1.9593,1.9597,1.9649,0,0,1.9612,1.9614,0,0,0,0,0,0,0,0,1.9302,1.9312,1.9404,1.9407,1.941,1.9476,1.9458,1.9538,1.9498,1.9465,1.9495,1.9494,1.9553,1.9561,1.958,1.9654,1.9658,1.9613,1.9615,1.9618,1.9619,0,0,0,0,0,0,0,1.9296,1.9308,1.9423,1.9405,1.9409,1.9414,1.9424,1.9474,1.9514,1.9468,1.9469,1.948,1.9555,1.9576,1.9583,1.9659,1.9612,1.9617,1.962,1.9622,1.9781,1.9783,0,0,0,0,0,0,1.9287,1.9304,1.942,1.9426,1.9352,1.9418,1.9429,1.9456,1.9514,1.9521,1.9481,1.948,1.9568,1.9577,1.9586,1.9652,1.9617,1.9622,1.9625,1.978,1.9782,1.9783,0,0,0,0,0,0,1.9284,1.9297,1.9417,1.9365,1.9381,1.9422,1.9452,1.9458,1.9479,1.9523,1.9531,1.9495,1.9567,1.9579,1.9634,1.9655,1.9624,1.9629,1.9778,1.9781,1.9782,1.9782,0,0,0,0,0,0,1.9279,1.9296,1.9316,1.9366,1.9383,1.9462,1.9453,1.9461,1.9487,1.9488,1.9538,1.9546,1.9567,1.9626,1.9639,1.9661,1.9632,1.9777,1.9779,1.9782,1.9781,1.9784,1.9787,0,0,0,0,0,1.9273,1.9312,1.9316,1.933,1.9409,1.9463,1.9474,1.9497,1.9489,1.951,1.9538,1.9544,1.9651,1.9632,1.9646,1.967,1.9775,1.9779,1.9782,1.9779,1.9783,1.9787,0,0,0,0,0,0,1.9263,1.9319,1.9324,1.938,1.9417,1.9466,1.9493,1.9501,1.9541,1.954,1.9568,1.9579,1.9632,1.9657,1.9635,1.9724,1.9713,1.9719,1.9706,1.9711,1.9714,1.9707,1.9636,0,0,0,0,0,1.9268,1.9307,1.9353,1.9398,1.9416,1.9451,1.9476,1.9491,1.953,1.9546,1.9578,1.9617,1.9659,1.9686,1.9727,1.9784,1.9796,1.9808,1.9811,1.9814,1.9818,1.9852,1.9858,1.9793,1.9793,1.9793,0,0,1.9277,1.9312,1.9335,1.9397,1.9427,1.9468,1.9464,1.9507,1.9538,1.9553,1.9606,1.9631,1.9676,1.9732,1.9759,1.9754,1.9839,1.9817,1.9819,1.9823,1.9855,1.9861,1.9867,1.9795,1.9795,1.9795,0,0,1.9315,1.9345,1.9386,1.9417,1.9463,1.9486,1.9496,1.9544,1.9561,1.9615,1.9628,1.9665,1.9736,1.9768,1.9793,1.9844,1.9852,1.9857,1.9874,1.9906,1.9911,1.9916,1.9935,1.9941,1.9862,1.9862,1.9862,0,1.9321,1.9382,1.9406,1.9449,1.9476,1.9492,1.9534,1.9563,1.962,1.9639,1.9633,1.9724,1.9755,1.9819,1.9832,1.9851,1.9864,1.9851,1.9908,1.9913,1.9918,1.9936,1.9943,1.9862,1.9862,1.9862,1.9862,0,1.9388,1.943,1.9458,1.9513,1.9543,1.9585,1.9617,1.9645,1.9658,1.9682,1.9737,1.9775,1.9824,1.9841,1.9854,1.9907,1.9903,1.9902,1.9892,1.9924,1.9942,1.9949,1.9863,1.9862,1.9862,1.9862,0,0,1.9422,1.949,1.95,1.9525,1.9577,1.9611,1.9654,1.9702,1.9726,1.9765,1.9803,1.9864,1.9864,1.9893,1.9909,1.9937,1.9976,1.9933,1.9935,1.994,2.0038,2.0039,2.0047,1.9981,1.9983,1.9984,2.0035,0,1.9466,1.9544,1.9567,1.9633,1.9673,1.9688,1.9726,1.9763,1.9787,1.9825,1.9851,1.9894,1.989,1.9908,1.9936,1.9965,1.9996,1.9962,2.0017,2.0019,2.0006,2.0056,2.0056,2.0103,2.0042,2.0043,2.0044,0,1.9528,1.9569,1.9638,1.9686,1.9704,1.9737,1.9784,1.982,1.9862,1.9877,1.991,1.9924,1.9971,1.9957,2.0023,1.9999,2.0023,2.0041,2.0043,2.005,2.0033,2.0064,2.0118,2.0125,2.0055,2.0054,2.0053,0,1.9547,1.9619,1.967,1.9691,1.9748,1.9771,1.9796,1.9837,1.9865,1.9906,1.9925,1.997,1.9996,2.0031,2.0058,2.0045,2.0121,2.011,2.0136,2.0135,2.0151,2.015,2.021,2.0166,2.0166,2.0166,2.0166,0,1.9595,1.9637,1.9679,1.971,1.9758,1.9785,1.9832,1.9858,1.9894,1.9931,1.9948,1.9982,2.0015,2.0055,2.0076,2.0127,2.0138,2.0153,2.0158,2.0151,2.015,2.0168,2.0165,2.0168,2.0167,2.0167,2.0167,0,1.9624,1.9654,1.971,1.976,1.9773,1.9806,1.9849,1.9881,1.9905,1.9952,1.9965,2.0003,2.0051,2.0081,2.0141,2.0155,2.0211,2.0215,2.0197,2.02,2.0224,2.0222,2.0299,2.0311,2.0258,2.0258,2.0259,0,1.9652,1.9685,1.9738,1.9764,1.9789,1.9831,1.986,1.9888,1.9917,1.9968,1.9994,2.0042,2.0082,2.0156,2.019,2.0236,2.0242,2.0266,2.0249,2.0242,2.0243,2.0241,2.0245,2.0269,2.0269,2.0269,2.027,0,1.97,1.9714,1.9754,1.98,1.9834,1.9872,1.9909,1.993,1.9965,1.9997,2.0045,2.0076,2.0138,2.0186,2.0235,2.0261,2.0272,2.0275,2.0283,2.0277,2.0266,2.0273,2.0205,2.0273,2.0273,2.0272,2.0272,2.0272,1.9731,1.9761,1.9803,1.9848,1.9879,1.9914,1.9947,1.9975,2.0016,2.0068,2.0083,2.0133,2.0175,2.0243,2.027,2.031,2.0307,2.032,2.0323,2.0326,2.0326,2.0259,2.0319,2.0319,2.0319,2.0319,2.0319,0,1.978,1.9808,1.9849,1.9902,1.9937,1.9944,1.9986,2.0015,2.006,2.0098,2.0137,2.0193,2.024,2.0277,2.0326,2.0351,2.0357,2.0363,2.0361,2.0367,2.0326,2.0314,2.0357,2.0357,2.0357,2.0357,2.0357,2.0357,1.981,1.9862,1.988,1.9948,1.9976,2.0025,2.0049,2.0082,2.0113,2.0174,2.0213,2.0237,2.0276,2.0327,2.037,2.038,2.0398,2.0402,2.0413,2.0374,2.037,2.0366,2.0355,2.0406,2.0406,2.0451,2.0452,2.0452]},{"header":{"parameterUnit":"m.s-1","parameterCategory":1,"la1":30.2991,"la2":30.254,"lo1":-89.0895,"lo2":-89.0444,"dy":0.0017,"dx":0.0017,"nx":28,"ny":28,"refTime":"2024-10-12T21:00:00:Z","depth":0,"parameterNumber":3,"parameterNumberName":"V-component_of_WINDS"},"data":[0,0,0,0,0,0,0,0,0,0,0,0,0,0,0,0,0,0,0,0,0,0,0,0,0,0,0,0,0,0,0,0,0,0,0,0,0,0,0,0,0,0,0,0,0,0,0,0,0,0,0,0,0,0,0,0,0,0,-0.2964,-0.2964,0,-0.2924,-0.2923,-0.2923,-0.2904,-0.2904,-0.2904,-0.2904,-0.2861,-0.286,-0.2859,0,0,0,0,0,0,0,0,0,0,0,0,0,-0.3024,-0.3023,-0.2964,-0.2964,-0.2963,-0.2924,-0.2923,-0.2923,-0.2904,-0.2904,-0.2904,-0.2904,-0.2862,-0.286,-0.2859,0,0,0,0,0,0,0,0,0,0,0,0,0,-0.2993,-0.3023,-0.2964,-0.2949,-0.2947,-0.2924,-0.2923,-0.2923,-0.2904,-0.2904,-0.2904,-0.2904,-0.2862,-0.2861,-0.2859,-0.2847,0,0,-0.2854,-0.2853,0,0,0,0,0,0,0,0,-0.2994,-0.299,-0.2952,-0.295,-0.2948,-0.2919,-0.2929,-0.2897,-0.2904,-0.292,-0.2904,-0.2904,-0.288,-0.2877,-0.287,-0.2845,-0.2844,-0.2853,-0.2852,-0.2852,-0.2851,0,0,0,0,0,0,0,-0.2997,-0.2992,-0.2948,-0.2951,-0.2949,-0.2944,-0.294,-0.2923,-0.2901,-0.2919,-0.2917,-0.2913,-0.2879,-0.2871,-0.2868,-0.2843,-0.2853,-0.2852,-0.2851,-0.285,-0.2809,-0.2808,0,0,0,0,0,0,-0.3001,-0.2994,-0.2949,-0.2947,-0.2972,-0.2943,-0.2938,-0.2928,-0.2901,-0.2897,-0.2913,-0.2912,-0.2874,-0.287,-0.2867,-0.2852,-0.2852,-0.285,-0.2849,-0.2809,-0.2808,-0.2808,0,0,0,0,0,0,-0.3003,-0.2998,-0.2951,-0.297,-0.2964,-0.2942,-0.2931,-0.2927,-0.2919,-0.2896,-0.2892,-0.2909,-0.2874,-0.2869,-0.2853,-0.285,-0.2849,-0.2848,-0.2809,-0.2809,-0.2808,-0.2822,0,0,0,0,0,0,-0.3005,-0.2998,-0.2994,-0.297,-0.2963,-0.2938,-0.2931,-0.2927,-0.2916,-0.2915,-0.2891,-0.2887,-0.2874,-0.2855,-0.2851,-0.2848,-0.2846,-0.2809,-0.2809,-0.2808,-0.2822,-0.2823,-0.2823,0,0,0,0,0,-0.3007,-0.2999,-0.2993,-0.2988,-0.2957,-0.2938,-0.2933,-0.2918,-0.2916,-0.2912,-0.2897,-0.2888,-0.2852,-0.2854,-0.2849,-0.2845,-0.2809,-0.2809,-0.2808,-0.2822,-0.2823,-0.2823,0,0,0,0,0,0,-0.3021,-0.2995,-0.2989,-0.2973,-0.2958,-0.2934,-0.2928,-0.292,-0.2904,-0.2903,-0.2885,-0.288,-0.2865,-0.2853,-0.2857,-0.2833,-0.2829,-0.2828,-0.2841,-0.2842,-0.2843,-0.2846,-0.2845,0,0,0,0,0,-0.3023,-0.301,-0.2988,-0.2976,-0.2968,-0.295,-0.2941,-0.2931,-0.2914,-0.2907,-0.2891,-0.2875,-0.286,-0.285,-0.2835,-0.2821,-0.2815,-0.2816,-0.2816,-0.2817,-0.2816,-0.2809,-0.2809,-0.2808,-0.2808,-0.2808,0,0,-0.3026,-0.301,-0.3002,-0.2978,-0.2965,-0.2952,-0.2944,-0.293,-0.292,-0.2905,-0.2888,-0.2876,-0.2857,-0.2842,-0.2834,-0.2832,-0.2815,-0.2817,-0.2818,-0.2816,-0.2808,-0.2808,-0.2809,-0.2808,-0.2808,-0.2808,0,0,-0.3024,-0.301,-0.2999,-0.2987,-0.2968,-0.2955,-0.2953,-0.2931,-0.2923,-0.2906,-0.2894,-0.2883,-0.2857,-0.2844,-0.2834,-0.2829,-0.2821,-0.2825,-0.2828,-0.2821,-0.2821,-0.2821,-0.282,-0.2819,-0.2824,-0.2824,-0.2824,0,-0.3029,-0.3009,-0.2995,-0.2982,-0.2972,-0.2958,-0.2947,-0.2935,-0.2912,-0.2905,-0.2903,-0.2871,-0.2857,-0.2839,-0.2838,-0.2831,-0.2827,-0.2827,-0.2822,-0.2822,-0.2822,-0.282,-0.282,-0.2825,-0.2825,-0.2825,-0.2825,0,-0.3017,-0.3004,-0.2997,-0.2976,-0.2965,-0.2953,-0.2937,-0.2928,-0.2919,-0.2908,-0.2891,-0.2874,-0.2856,-0.2851,-0.2842,-0.2832,-0.2831,-0.2826,-0.2822,-0.2823,-0.2821,-0.282,-0.2826,-0.2825,-0.2825,-0.2825,0,0,-0.3022,-0.2994,-0.2992,-0.2983,-0.2961,-0.2951,-0.2939,-0.2921,-0.2914,-0.2899,-0.2888,-0.2868,-0.2863,-0.2852,-0.2842,-0.2835,-0.2833,-0.2831,-0.283,-0.2832,-0.2822,-0.2826,-0.2826,-0.2828,-0.2828,-0.2828,-0.2824,0,-0.3018,-0.2996,-0.2983,-0.2966,-0.2954,-0.2941,-0.2931,-0.2917,-0.2906,-0.2894,-0.2881,-0.2867,-0.2862,-0.2855,-0.2849,-0.2835,-0.2831,-0.2835,-0.2818,-0.2817,-0.2823,-0.2825,-0.2828,-0.2825,-0.2823,-0.2823,-0.2823,0,-0.3009,-0.2995,-0.2977,-0.2958,-0.2953,-0.2943,-0.2927,-0.2916,-0.29,-0.2892,-0.2881,-0.2871,-0.2858,-0.2855,-0.2837,-0.2841,-0.2833,-0.2826,-0.2825,-0.2822,-0.282,-0.2822,-0.2824,-0.2824,-0.2821,-0.2821,-0.2822,0,-0.3015,-0.2991,-0.2978,-0.297,-0.2948,-0.2942,-0.2932,-0.2916,-0.2907,-0.2893,-0.2887,-0.2872,-0.2863,-0.2851,-0.2837,-0.2837,-0.2821,-0.2817,-0.2815,-0.2815,-0.2811,-0.2812,-0.2812,-0.2807,-0.2807,-0.2807,-0.2807,0,-0.301,-0.3,-0.298,-0.2972,-0.2961,-0.2946,-0.2935,-0.2924,-0.2911,-0.29,-0.2888,-0.2879,-0.2861,-0.285,-0.2839,-0.2826,-0.2822,-0.2816,-0.2813,-0.2817,-0.2818,-0.2811,-0.2811,-0.2807,-0.2807,-0.2807,-0.2807,0,-0.3014,-0.3001,-0.2986,-0.2966,-0.2961,-0.2953,-0.2937,-0.2928,-0.2918,-0.2905,-0.2901,-0.2883,-0.2869,-0.2855,-0.2835,-0.2828,-0.2816,-0.2812,-0.2821,-0.282,-0.2818,-0.2818,-0.2814,-0.2813,-0.2809,-0.2809,-0.2809,0,-0.3012,-0.3004,-0.2985,-0.2977,-0.2968,-0.2956,-0.2947,-0.2933,-0.2924,-0.2906,-0.29,-0.2886,-0.2873,-0.2851,-0.2837,-0.2822,-0.2818,-0.2817,-0.2815,-0.282,-0.2818,-0.2818,-0.2818,-0.2818,-0.2818,-0.2818,-0.2818,0,-0.3011,-0.3005,-0.2992,-0.2978,-0.2968,-0.2956,-0.2944,-0.2938,-0.2922,-0.2912,-0.2898,-0.2889,-0.287,-0.2855,-0.2839,-0.2829,-0.2821,-0.2819,-0.2818,-0.2821,-0.2827,-0.2824,-0.2823,-0.2819,-0.2819,-0.2819,-0.2819,-0.2819,-0.3012,-0.3004,-0.299,-0.2977,-0.2966,-0.2955,-0.2947,-0.2935,-0.2923,-0.2907,-0.29,-0.2886,-0.2871,-0.2849,-0.2839,-0.2828,-0.2826,-0.2824,-0.2823,-0.2823,-0.2824,-0.2829,-0.2825,-0.2825,-0.2825,-0.2825,-0.2825,0,-0.3009,-0.3,-0.2988,-0.2971,-0.2962,-0.2956,-0.2942,-0.2934,-0.2922,-0.2909,-0.2897,-0.2882,-0.2868,-0.2853,-0.2839,-0.2833,-0.2829,-0.283,-0.283,-0.2828,-0.2827,-0.2829,-0.2833,-0.2833,-0.2833,-0.2833,-0.2833,-0.2833,-0.3007,-0.2995,-0.2987,-0.297,-0.296,-0.2947,-0.2939,-0.2929,-0.2919,-0.2903,-0.2891,-0.2882,-0.2869,-0.2854,-0.2841,-0.2837,-0.2832,-0.2834,-0.2829,-0.2828,-0.2828,-0.2827,-0.283,-0.2833,-0.2833,-0.2831,-0.2831,-0.2831]}]]